リニア-ミュラー彗星

188P/LINEAR-Mueller (1998)

English version
Home page
Total 6,336 html files since Dec. 4, 1995
Updated on July 1, 2007

---------------------------------------------------------------------

・ プロフィール

符号 188P/1998 S1
発見日 1998年9月26日, 10月14日
発見光度 18.1等, 17等
発見者 Lincoln Laboratory Near-Earth Asteroid Research project, Jean Mueller (Palomar Outer Solar System Ecliptic Survey)

・ 写真集

・ 軌道要素

                    Epoch = 1998 Nov.  3.0 TT
     T = 1998 Nov.  2.7434 TT         Peri. =  26.3621
     e = 0.416704                     Node  = 359.1837  2000.0
     q = 2.548366 AU                  Incl. =  10.5598
       a =  4.368908 AU    n = 0.1079306    P =   9.132 years

・ 星図

・ 光度変化

        m1 = 12.0 + 5 logΔ + 6.3 log r

---------------------------------------------------------------------

軌道要素は、 IAUC 8853 に掲載されたものです。
星図は StellaNavigator Ver.2.0 for Windows (アストロアーツ 編著 / アスキー出版局刊) で作成したものです。
光度グラフはComet for Windowsで作成したものです。

---------------------------------------------------------------------

Copyright(C) 1995-2008 Seiichi Yoshida (comet@aerith.net). All rights reserved.